Regional Weather Roundup
Issued by NWS Bismarck, ND

Home | Current Version | Previous Version | Text Only | Print | Product List | Glossary On
Versions: 1 2 3 4 5 6 7 8 9 10 11 12 13 14 15 16 17 18 19 20 21 22 23 24 25 26 27 28 29 30 31 32 33 34 35 36 37 38 39 40 41 42 43 44 45 46 47 48 49 50
000
ASUS43 KBIS 291410
RWRBIS

NWR BROADCAST TEXT
NATIONAL WEATHER SERVICE BISMARCK ND
900 AM CDT SAT AUG 29 2015

NOTE: "FAIR" INDICATES FEW OR NO CLOUDS BELOW 12,000 FEET WITH NO
SIGNIFICANT WEATHER AND/OR OBSTRUCTIONS TO VISIBILITY.


CITY           SKY/WX    TMP DP  RH WIND       PRES   REMARKS
WILLISTON      PTSUNNY   63  52  67 SW8       29.93R HAZE
MINOT          PTSUNNY   64  52  64 S5        29.90F HAZE
MINOT AFB      PTSUNNY   61  59  92 CALM      29.89S
BISMARCK       CLOUDY    62  59  90 CALM      29.96R
DICKINSON      MOSUNNY   65  52  62 S5        29.96F HAZE
GARRISON         N/A     61  57  87 CALM      29.94S
HETTINGER ARPT PTSUNNY   58  52  80 CALM      30.02R HAZE
JAMESTOWN      MOSUNNY   64  62  93 S8        29.93F
CROSBY         FAIR      64  54  68 SW16      29.88S HAZE
HARVEY         FAIR      59  59 100 SW5       29.93R FOG
HAZEN          FAIR      57  54  88 SW5       29.96S FOG
LINTON         FAIR      63  63 100 E3        29.97S
OAKES            N/A     64  54  68 S10       29.97F
RUGBY          FAIR      61  61 100 SW3       29.91S FOG
STANLEY        FAIR      61  59  94 CALM      29.95R FOG
$$

CITY           SKY/WX    TMP DP  RH WIND       PRES   REMARKS
GRAND FORKS    PTSUNNY   65  63  93 S10       29.91S
GRAND FORKS AF CLOUDY    65  65 100 S6        29.92R
DEVILS LAKE    SUNNY     64  61  88 SE6       29.91S
FARGO          SUNNY     65  60  84 S12       29.95F
CAVALIER       FOG       63  63 100 E5        29.91S VSB 1/4
GRAFTON        FOG       64  64 100 S5        29.91F VSB<1/4
GWINNER          N/A     66  64  94 SW14      29.97S
LANGDON        FAIR      66  66 100 CALM      29.92F FOG
ROLLA          FAIR      63  63 100 S3        29.92F FOG
WALHALLA       FAIR      64  64 100 MISG      29.90F FOG
$$

CITY           SKY/WX    TMP DP  RH WIND       PRES   REMARKS
ABERDEEN       MOSUNNY   62  60  93 S10       30.00R
MOBRIDGE       SUNNY     64  64 100 CALM      29.96S
BUFFALO          N/A     63  50  62 CALM      29.96S
RAPID CITY     MOSUNNY   61  55  81 CALM      30.06S
GLASGOW        CLOUDY    66  46  48 E5        29.90R HAZE
SIDNEY         PTSUNNY   57  50  77 S6        29.93S
WOLF POINT     CLOUDY    62  48  60 CALM      29.89S HAZE
GLENDIVE       MOSUNNY   63  48  59 W5        29.97R
MILES CITY     SUNNY     63  46  54 SE5       29.96S HAZE
BAKER          SUNNY     63  49  60 E5        29.99F HAZE
$$

CITY           SKY/WX    TMP DP  RH WIND       PRES   REMARKS
BILLINGS       PTSUNNY   68  42  38 SW9       30.01S
GREAT FALLS    PTSUNNY   73  39  29 S7        29.93S HAZE
REGINA         CLOUDY    61  54  77 SE8       29.83R SMOKE
ESTEVAN        CLOUDY    63  54  72 S8        29.87F SMOKE
$$



USA.gov is the U.S. government's official web portal to all federal, state and local government web resources and services.